Weather History for KMSN - January, 2014

Change the Weather History Date:

Tuesday, January 7, 2014

  Actual Average Record
Temperature  
Mean Temperature -6 °F 19 °F  
Max Temperature 2 °F 26 °F 50 °F (2008)
Min Temperature -15 °F 11 °F -29 °F (1887)
Degree Days  
Heating Degree Days 71 46  
Month to date heating degree days 439 322  
Since 1 July heating degree days 3424 3201  
Cooling Degree Days 0 0  
Month to date cooling degree days 0 0  
Year to date cooling degree days 0 0  
Moisture  
Dew Point -16 °F    
Average Humidity 63    
Maximum Humidity 74    
Minimum Humidity 51    
Precipitation  
Precipitation 0.00 in 0.04 in 0.68 in (1913)
Month to date precipitation T 0.29  
Year to date precipitation T 0.29  
Snow  
Snow 0.00 in 0.40 in 7.00 in (1913)
Month to date snowfall 0.3 2.8  
Since 1 July snowfall 25.9 20.4  
Snow Depth 6.00 in    
Sea Level Pressure  
Sea Level Pressure 30.27 in    
Wind  
Wind Speed 5 mph (WSW)    
Max Wind Speed 12 mph    
Max Gust Speed 17 mph    
Visibility 10 miles    
Events      
T = Trace of Precipitation, MM = Missing Value Source: NWS Daily Summary

Daily Weather History Graph

Daily Weather History Graph

Search for Another Location

Airport or City:

Trip Planner

Search our weather history database for the weather conditions in past years. The results will help you decide how hot, cold, wet, or windy it might be!

Date:

Astronomy

Jan. 07, 2014 Rise Set
Actual Time 7:28 AM CST 4:38 PM CST
Civil Twilight 6:56 AM CST 5:10 PM CST
Nautical Twilight 6:21 AM CST 5:46 PM CST
Astronomical Twilight 5:46 AM CST 6:20 PM CST
Moon 11:05 AM CST (1/7) No Moon Set
Length of Visible Light 10h 13m
Length of Day
9h 09m
Waxing Crescent, 46% of the Moon is Illuminated
Jan 7
Waxing Crescent
Jan 7
First Quarter
Jan 15
Full
Jan 23
Last Quarter
Jan 30
New

Hourly Weather History & Observations

Time (CST) Temp. Windchill Dew Point Humidity Pressure Visibility Wind Dir Wind Speed Gust Speed Precip Events Conditions
12:53 AM -14.1 °F -31.3 °F -22.0 °F 68% 30.23 in 10.0 mi West 8.1 mph - N/A   Unknown
1:53 AM -14.1 °F -28.3 °F -22.0 °F 68% 30.23 in 10.0 mi West 5.8 mph - N/A   Unknown
2:53 AM -14.1 °F -28.3 °F -22.0 °F 68% 30.24 in 10.0 mi Variable 5.8 mph - N/A   Unknown
3:53 AM -14.1 °F -23.9 °F -20.9 °F 71% 30.23 in 10.0 mi Variable 3.5 mph - N/A   Unknown
4:53 AM -13.0 °F -27.0 °F -20.9 °F 68% 30.25 in 10.0 mi Variable 5.8 mph - N/A   Unknown
5:53 AM -14.1 °F -23.9 °F -20.9 °F 71% 30.23 in 10.0 mi Variable 3.5 mph - N/A   Clear
6:53 AM -14.1 °F -26.3 °F -20.9 °F 71% 30.25 in 10.0 mi West 4.6 mph - N/A   Scattered Clouds
7:53 AM -13.0 °F -25.1 °F -20.0 °F 71% 30.26 in 10.0 mi West 4.6 mph - N/A   Mostly Cloudy
8:53 AM -11.0 °F -26.2 °F -18.9 °F 68% 30.29 in 10.0 mi Variable 6.9 mph - N/A   Mostly Cloudy
9:53 AM -9.0 °F -25.2 °F -18.0 °F 65% 30.31 in 10.0 mi West 8.1 mph 17.3 mph N/A   Overcast
10:53 AM -6.0 °F -18.6 °F -17.0 °F 59% 30.28 in 10.0 mi West 5.8 mph - N/A   Mostly Cloudy
11:53 AM -2.9 °F -16.5 °F -15.0 °F 56% 30.26 in 10.0 mi Variable 6.9 mph - N/A   Mostly Cloudy
12:53 PM -0.0 °F -16.3 °F -13.0 °F 54% 30.25 in 10.0 mi WSW 10.4 mph - N/A   Partly Cloudy
1:53 PM 1.0 °F -11.7 °F -13.0 °F 52% 30.23 in 10.0 mi WSW 6.9 mph - N/A   Clear
2:53 PM 1.0 °F -8.7 °F -13.0 °F 52% 30.23 in 10.0 mi Variable 4.6 mph - N/A   Clear
3:53 PM 1.9 °F -9.2 °F -13.0 °F 50% 30.24 in 10.0 mi WSW 5.8 mph - N/A   Clear
4:53 PM 1.0 °F -8.7 °F -11.9 °F 55% 30.25 in 10.0 mi SW 4.6 mph - N/A   Clear
5:53 PM -0.0 °F -9.9 °F -11.9 °F 57% 30.27 in 10.0 mi SW 4.6 mph - N/A   Clear
6:53 PM -0.0 °F -7.9 °F -11.0 °F 60% 30.29 in 10.0 mi SSW 3.5 mph - N/A   Clear
7:53 PM -0.0 °F - -9.9 °F 63% 30.30 in 10.0 mi Calm Calm - N/A   Clear
8:53 PM -0.9 °F - -9.9 °F 66% 30.32 in 10.0 mi Calm Calm - N/A   Clear
9:53 PM -2.0 °F - -9.9 °F 69% 30.32 in 10.0 mi Calm Calm - N/A   Clear
10:53 PM -4.0 °F - -11.0 °F 72% 30.34 in 10.0 mi Calm Calm - N/A   Clear
11:53 PM -6.0 °F - -11.0 °F 79% 30.32 in 10.0 mi Calm Calm - N/A   Unknown